Stations météo

Publicité
Le Luc, France (7675): Température de l'air & dewpoint: 14.08.2017 19:00:00 - 20.08.2017 19:00:00 (CEST)Le Luc, France (7675): Température de l'air 5cm: 14.08.2017 19:00:00 - 20.08.2017 19:00:00 (CEST)Le Luc, France (7675): Vitesse du vent & gusts: 14.08.2017 19:00:00 - 20.08.2017 19:00:00 (CEST)Le Luc, France (7675): Direction du vent: 14.08.2017 19:00:00 - 20.08.2017 19:00:00 (CEST)Le Luc, France (7675): reduced air pressure: 14.08.2017 19:00:00 - 20.08.2017 19:00:00 (CEST)Le Luc, France (7675): visibility: 14.08.2017 19:00:00 - 20.08.2017 19:00:00 (CEST)Le Luc, France (7675): Ensoleillement: 14.08.2017 19:00:00 - 20.08.2017 19:00:00 (CEST)Le Luc, France (7675): Quantités de précipitations: 14.08.2017 19:00:00 - 20.08.2017 19:00:00 (CEST)
Date & Time tt [°C] td [°C] tt 5cm [°C] ff [km/h] ff [knt] fx [km/h] fx [knt] dd ppp [hPa] vv [km] sd [min] rr [mm]
20.08.2017 19:00:00 30,2 10,7 32,9 8 5 27 15 SSW 1015,1 42 60 0,0
20.08.2017 18:00:00 31,4 10,7 32,3 9 5 32 17 S 1014,8 40 50 0,0
20.08.2017 17:00:00 30,7 9,6 32,7 14 8 34 18 SE 1015,0 44 44 0,0
20.08.2017 16:00:00 31,2 9,4 36,0 13 7 29 16 SSE 1014,9 33 57 0,0
20.08.2017 15:00:00 32,0 8,9 37,1 14 8 29 16 SE 1015,1 40 60 0,0
20.08.2017 14:00:00 31,8 8,7 38,3 9 5 22 12 SE 1015,2 31 60 0,0
20.08.2017 13:00:00 30,3 7,5 35,1 6 4 17 9 NNW 1015,8 34 60 0,0
20.08.2017 12:00:00 28,0 5,5 33,1 6 3 23 12 WSW 1016,3 34 60 0,0
20.08.2017 11:00:00 25,2 4,9 29,7 13 7 25 13 W 1016,7 42 60 0,0
20.08.2017 10:00:00 23,3 4,7 26,3 12 7 22 12 W 1016,5 48 60 0,0
20.08.2017 09:00:00 21,7 4,3 22,3 13 7 27 14 W 1016,5 47 60 0,0
20.08.2017 08:00:00 20,0 3,2 18,0 10 6 19 10 WSW 1015,9 50 53 0,0
20.08.2017 07:00:00 19,5 2,8 18,1 10 5 32 17 W 1015,1 50 0 0,0
20.08.2017 06:00:00 20,3 2,6 19,1 21 12 39 21 W 1014,5 50 0 0,0
20.08.2017 05:00:00 21,5 3,2 19,5 17 9 39 21 W 1014,4 50 0 0,0
20.08.2017 04:00:00 21,2 2,9 20,0 15 8 32 17 SW 1014,3 50 0 0,0
20.08.2017 03:00:00 21,4 2,6 20,0 12 6 30 16 SSW 1014,1 50 0 0,0
20.08.2017 02:00:00 21,6 2,3 20,2 12 6 26 14 SSW 1014,3 50 0 0,0
20.08.2017 01:00:00 23,1 1,4 21,9 18 10 35 19 WSW 1014,2 50 0 0,0
20.08.2017 00:00:00 24,7 -2,0 23,2 13 7 36 19 SW 1014,2 50 0 0,0
19.08.2017 23:00:00 25,9 -3,7 24,7 14 8 38 21 SSW 1013,6 50 0 0,0
19.08.2017 22:00:00 27,3 -3,6 26,0 17 9 52 28 W 1013,6 50 0 0,0
19.08.2017 21:00:00 28,1 -5,2 27,2 31 17 55 30 W 1012,5 50 0 0,0
19.08.2017 20:00:00 29,3 -5,5 28,5 24 13 55 30 W 1012,3 50 26 0,0
19.08.2017 19:00:00 31,2 -0,5 32,7 38 21 59 32 WNW 1011,6 48 60 0,0
19.08.2017 18:00:00 32,4 3,3 35,1 35 19 55 30 W 1011,4 45 60 0,0
19.08.2017 17:00:00 32,6 6,0 35,9 32 18 55 30 W 1011,7 39 54 0,0
19.08.2017 16:00:00 32,2 7,8 35,3 30 16 59 32 WNW 1011,9 44 39 0,0
19.08.2017 15:00:00 31,8 9,3 34,8 36 19 55 30 W 1012,0 42 38 0,0
19.08.2017 14:00:00 31,5 11,3 34,6 36 19 56 30 WNW 1012,0 44 35 0,0
19.08.2017 13:00:00 30,5 12,9 33,4 25 14 48 26 W 1012,6 35 54 0,0
19.08.2017 12:00:00 29,5 12,4 31,9 29 16 47 25 W 1013,0 43 58 0,0
19.08.2017 11:00:00 28,0 13,9 31,2 29 16 45 24 W 1013,5 39 56 0,0
19.08.2017 10:00:00 27,2 14,9 27,5 21 11 34 18 W 1013,6 39 58 0,0
19.08.2017 09:00:00 25,5 15,2 27,0 25 13 39 21 W 1014,0 46 40 0,0
19.08.2017 08:00:00 24,9 16,1 23,9 23 12 37 20 W 1013,8 42 50 0,0
19.08.2017 07:00:00 24,3 16,3 23,4 14 8 23 12 W 1013,2 42 0 0,0
19.08.2017 06:00:00 25,0 15,9 24,1 14 7 27 15 W 1012,9 43 0 0,0
19.08.2017 05:00:00 25,4 14,8 24,3 18 10 28 15 WNW 1013,0 45 0 0,0
19.08.2017 04:00:00 25,2 13,4 24,4 9 5 24 13 WSW 1013,0 46 0 0,0
19.08.2017 03:00:00 25,9 13,7 24,2 16 9 24 13 W 1013,0 47 0 0,0
19.08.2017 02:00:00 25,0 15,3 24,0 6 3 14 7 SW 1013,1 48 0 0,0
19.08.2017 01:00:00 26,0 15,4 25,3 7 4 11 6 SW 1013,7 44 0 0,0
19.08.2017 00:00:00 26,6 15,6 25,8 7 4 19 10 SW 1014,5 41 0 0,0
18.08.2017 23:00:00 27,4 15,1 26,6 12 6 19 11 WSW 1014,6 40 0 0,0
18.08.2017 22:00:00 27,9 15,2 26,9 9 5 18 10 WSW 1014,7 50 0 0,0
18.08.2017 21:00:00 29,4 14,8 28,2 16 8 24 13 WNW 1014,5 50 3 0,0
18.08.2017 20:00:00 30,8 14,0 30,5 13 7 27 15 WSW 1013,8 44 16 0,0
18.08.2017 19:00:00 32,6 13,3 34,3 13 7 32 17 WSW 1014,0 45 57 0,0
18.08.2017 18:00:00 34,7 10,5 38,4 10 5 31 17 SSW 1013,7 32 60 0,0
18.08.2017 17:00:00 35,6 11,3 40,7 14 7 26 14 SW 1013,6 32 60 0,0
18.08.2017 16:00:00 36,6 11,4 41,4 11 6 34 18 S 1013,7 33 60 0,0
18.08.2017 15:00:00 36,1 13,0 40,5 21 11 37 20 SE 1013,9 35 60 0,0
18.08.2017 14:00:00 35,3 15,1 41,0 18 10 29 16 ESE 1014,4 32 60 0,0
18.08.2017 13:00:00 35,6 14,3 41,7 5 3 19 10 WSW 1015,0 34 60 0,0
18.08.2017 12:00:00 33,7 14,2 41,2 4 2 8 5 NW 1015,9 30 60 0,0
18.08.2017 11:00:00 31,6 14,3 37,0 4 2 10 5 NNW 1016,4 35 60 0,0
18.08.2017 10:00:00 28,4 15,3 31,1 2 1 4 2 NE 1016,6 36 60 0,0
18.08.2017 09:00:00 24,7 15,1 25,5 0 0 4 2 N 1017,1 26 60 0,0
18.08.2017 08:00:00 20,5 14,4 16,6 0 0 5 3 N 1017,1 42 55 0,0
18.08.2017 07:00:00 17,1 13,0 16,4 3 1 4 2 ESE 1017,0 45 0 0,0
18.08.2017 06:00:00 19,1 13,9 17,1 3 2 5 3 W 1016,6 50 0 0,0
18.08.2017 05:00:00 18,4 13,3 17,1 0 0 5 3 N 1016,7 49 0 0,0
18.08.2017 04:00:00 19,1 13,5 17,8 4 2 9 5 ESE 1016,5 50 0 0,0
18.08.2017 03:00:00 20,3 13,7 18,8 0 0 5 3 N 1016,7 47 0 0,0
18.08.2017 02:00:00 20,8 14,0 19,7 4 2 6 3 WNW 1017,0 50 0 0,0
18.08.2017 01:00:00 22,3 14,2 20,6 0 0 6 3 N 1017,0 49 0 0,0
18.08.2017 00:00:00 23,5 14,2 21,8 0 0 5 3 N 1017,0 50 0 0,0
17.08.2017 23:00:00 25,5 14,9 23,8 3 1 6 4 SW 1016,9 49 0 0,0
17.08.2017 22:00:00 27,5 14,5 25,8 0 0 8 4 N 1016,8 50 0 0,0
17.08.2017 21:00:00 28,8 14,2 27,2 5 3 12 7 NNE 1016,3 50 12 0,0
17.08.2017 20:00:00 31,5 13,7 31,1 10 5 18 10 ENE 1015,7 47 60 0,0
17.08.2017 19:00:00 32,9 14,0 35,8 11 6 21 11 ESE 1015,5 39 60 0,0
17.08.2017 18:00:00 33,1 13,7 37,2 15 8 26 14 ESE 1015,8 39 60 0,0
17.08.2017 17:00:00 33,4 12,9 37,9 20 11 32 17 ESE 1015,7 37 60 0,0
17.08.2017 16:00:00 34,2 13,1 38,6 23 12 36 20 ESE 1015,8 35 60 0,0
17.08.2017 15:00:00 34,1 13,0 39,3 22 12 32 17 SE 1015,9 38 60 0,0
17.08.2017 14:00:00 34,7 13,0 39,9 17 9 32 17 E 1016,2 20 60 0,0
17.08.2017 13:00:00 34,3 13,2 39,9 13 7 26 14 ESE 1016,6 37 60 0,0
17.08.2017 12:00:00 33,2 12,8 37,4 6 3 13 7 ESE 1017,0 30 60 0,0
17.08.2017 11:00:00 30,3 11,8 34,4 2 1 7 4 NNW 1017,6 36 60 0,0
17.08.2017 10:00:00 26,7 14,1 28,5 0 0 6 4 N 1017,8 34 60 0,0
17.08.2017 09:00:00 23,1 14,6 23,6 3 1 6 4 ESE 1018,0 39 60 0,0
17.08.2017 08:00:00 19,3 13,9 15,9 2 1 5 3 W 1017,9 35 51 0,0
17.08.2017 07:00:00 16,1 12,8 15,2 0 0 4 2 N 1017,7 49 0 0,0
17.08.2017 06:00:00 17,4 13,7 15,7 0 0 4 2 N 1017,3 50 0 0,0
17.08.2017 05:00:00 18,1 13,8 16,4 0 0 4 2 N 1017,2 50 0 0,0
17.08.2017 04:00:00 18,3 14,0 17,0 2 1 4 2 E 1017,0 50 0 0,0
17.08.2017 03:00:00 19,4 14,9 18,1 5 3 7 4 SE 1016,9 50 0 0,0
17.08.2017 02:00:00 20,1 14,5 18,7 4 2 7 4 N 1017,2 50 0 0,0
17.08.2017 01:00:00 20,7 14,6 19,1 0 0 16 9 N 1017,1 50 0 0,0
17.08.2017 00:00:00 22,1 14,7 20,4 0 0 7 4 N 1017,0 50 0 0,0
16.08.2017 23:00:00 23,5 15,0 22,0 4 2 7 4 W 1017,4 50 0 0,0
16.08.2017 22:00:00 25,1 15,7 23,8 2 1 16 8 SSE 1017,4 50 0 0,0
16.08.2017 21:00:00 26,2 15,3 25,4 8 4 18 10 NE 1016,9 50 13 0,0
16.08.2017 20:00:00 28,7 14,1 29,1 9 5 15 8 NE 1016,3 49 41 0,0
16.08.2017 19:00:00 29,9 14,4 29,8 10 5 23 13 NE 1016,0 39 29 0,0
16.08.2017 18:00:00 28,8 15,3 29,9 16 9 29 16 NE 1016,2 47 0 0,0
16.08.2017 17:00:00 33,8 12,2 36,1 11 6 26 14 W 1016,2 40 11 0,0
16.08.2017 16:00:00 35,0 11,4 36,7 14 8 33 18 ESE 1015,5 43 35 0,0
16.08.2017 15:00:00 34,6 12,3 38,5 22 12 34 18 ESE 1015,7 40 60 0,0
16.08.2017 14:00:00 35,4 8,3 43,4 10 5 24 13 NNE 1015,8 30 60 0,0
16.08.2017 13:00:00 34,4 8,2 40,5 6 3 11 6 W 1016,6 33 60 0,0
16.08.2017 12:00:00 32,3 9,2 30,9 10 5 16 9 NW 1017,2 20 49 0,0
16.08.2017 11:00:00 30,3 10,8 33,5 8 4 17 9 W 1017,7 20 53 0,0
16.08.2017 10:00:00 28,2 9,0 29,5 3 1 8 4 SW 1018,2 39 60 0,0
16.08.2017 09:00:00 23,6 8,1 23,7 3 1 7 4 ESE 1018,7 47 60 0,0
16.08.2017 08:00:00 19,0 8,0 16,6 0 0 8 5 N 1018,9 10 58 0,0
16.08.2017 07:00:00 17,2 7,5 16,1 3 2 13 7 NNE 1018,7 50 0 0,0
16.08.2017 06:00:00 19,5 7,6 17,2 7 4 12 7 SW 1018,3 50 0 0,0
16.08.2017 05:00:00 18,4 8,1 16,9 5 3 8 4 S 1018,4 50 0 0,0
16.08.2017 04:00:00 20,2 7,2 18,1 4 2 14 8 NNW 1018,4 50 0 0,0
16.08.2017 03:00:00 22,1 7,9 20,2 10 5 20 11 W 1018,6 50 0 0,0
16.08.2017 02:00:00 21,6 7,8 20,2 6 4 15 8 SW 1019,1 50 0 0,0
16.08.2017 01:00:00 22,5 7,8 21,3 7 4 16 9 SSW 1019,8 50 0 0,0
16.08.2017 00:00:00 24,1 7,7 22,3 7 4 21 11 WSW 1020,0 50 0 0,0
15.08.2017 23:00:00 23,1 8,0 21,5 10 5 14 8 SW 1019,4 50 0 0,0
15.08.2017 22:00:00 24,9 6,6 22,9 3 2 12 7 SSE 1019,2 50 0 0,0
15.08.2017 21:00:00 26,7 6,7 25,5 10 5 25 14 WSW 1018,8 50 0 0,0
15.08.2017 20:00:00 28,5 4,7 28,0 15 8 29 16 WSW 1018,7 50 40 0,0
15.08.2017 19:00:00 30,9 6,7 33,7 15 8 30 16 WSW 1018,2 46 60 0,0
15.08.2017 18:00:00 33,6 8,3 37,9 17 9 29 16 ENE 1017,7 46 60 0,0
15.08.2017 17:00:00 33,6 8,3 38,2 16 9 27 14 ENE 1017,8 43 60 0,0
15.08.2017 16:00:00 33,6 9,6 38,1 22 12 36 19 ESE 1018,1 45 60 0,0
15.08.2017 15:00:00 34,0 10,6 38,7 22 12 32 18 SE 1018,3 39 60 0,0
15.08.2017 14:00:00 34,3 6,6 40,5 7 4 24 13 SSE 1018,4 38 60 0,0
15.08.2017 13:00:00 32,3 6,5 39,2 6 4 16 9 NNE 1019,3 40 60 0,0
15.08.2017 12:00:00 30,7 5,9 36,2 4 2 8 5 NNW 1020,0 40 60 0,0
15.08.2017 11:00:00 27,7 9,0 30,4 2 1 6 3 WSW 1020,8 47 60 0,0
15.08.2017 10:00:00 23,4 11,4 25,9 4 2 7 4 ESE 1021,0 41 60 0,0
15.08.2017 09:00:00 19,9 11,4 20,6 0 0 6 3 N 1021,6 44 60 0,0
15.08.2017 08:00:00 17,0 11,9 12,9 0 0 5 3 N 1021,4 44 60 0,0
15.08.2017 07:00:00 12,6 10,1 11,0 0 0 3 2 N 1021,0 50 0 0,0
15.08.2017 06:00:00 12,9 10,4 11,3 0 0 4 2 N 1020,7 50 0 0,0
15.08.2017 05:00:00 13,1 10,1 11,6 0 0 4 2 N 1020,6 50 0 0,0
15.08.2017 04:00:00 14,7 11,3 13,2 4 2 5 3 WNW 1020,7 50 0 0,0
15.08.2017 03:00:00 15,2 11,6 13,1 0 0 4 2 N 1020,7 50 0 0,0
15.08.2017 02:00:00 16,2 11,6 14,4 0 0 3 2 N 1020,6 50 0 0,0
15.08.2017 01:00:00 17,0 12,5 15,3 2 1 5 3 N 1020,5 50 0 0,0
15.08.2017 00:00:00 18,8 13,2 17,2 3 1 4 2 WSW 1020,4 50 0 0,0
14.08.2017 23:00:00 20,5 15,1 18,2 0 0 7 4 N 1020,4 50 0 0,0
14.08.2017 22:00:00 22,4 14,5 20,1 5 3 12 7 ENE 1020,4 50 0 0,0
14.08.2017 21:00:00 24,5 12,8 23,4 9 5 19 10 ESE 1019,7 50 16 0,0
14.08.2017 20:00:00 27,0 9,8 26,7 14 7 20 11 ESE 1019,1 50 60 0,0
14.08.2017 19:00:00 28,5 10,2 31,5 14 7 30 16 ESE 1018,8 44 60 0,0

tt = Température de l'air
td = dewpoint
tt 5cm = Température de l'air 5cm
ff = Vitesse du vent
fx = gusts
dd = Direction du vent
ppp = reduced air pressure
vv = visibility
sd = Ensoleillement
rr = Quantités de précipitations

stations d'obs. à proximité